Temp
11 10 9 9 8 8 8 7 6 5 6 5 4 3 2 2 1 1 0 0 0 -1
10 9 9 8 8 7 7 6 5 5 4 3 3 2 1 0 0 -0 -0 -0 -0 -1
9 8 8 7 7 5 5 4 4 4 3 2 1 1 0 -0 -0 -1 -1 -1 -2 -3
8 7 7 6 5 4 2 3 3 3 2 1 0 -0 -0 -0 -1 -2 -3 -3 -3 -3
7 7 6 5 3 2 3 3 3 2 1 0 -0 -0 -1 -1 -2 -2 -3 -3 -3 -4
7 6 4 4 2 3 3 3 2 1 1 -0 -1 -1 -1 -2 -3 -3 -3 -4 -4 -4
6 5 4 2 2 2 3 2 2 1 0 -1 -1 -1 -1 -2 -3 -3 -4 -4 -4 -5
5 5 3 3 1 2 3 2 1 0 -0 -1 -1 -1 -1 -2 -3 -3 -4 -4 -5 -5
5 4 1 2 2 1 1 1 0 -0 -1 -1 -1 -2 -2 -2 -3 -4 -4 -5 -5 -6
3 2 2 0 1 1 1 0 -0 -1 -1 -2 -2 -2 -2 -3 -3 -4 -4 -5 -6 -7
2 1 0 0 0 -1 -0 -1 -1 -1 -1 -1 -2 -2 -3 -4 -4 -4 -5 -6 -6 -7
-0 -1 -1 -1 -1 -1 -1 -1 -1 -1 -2 -2 -2 -3 -3 -4 -5 -5 -6 -6 -7 -7
-2 -1 -1 -0 -0 -1 -1 -2 -2 -2 -2 -3 -3 -3 -4 -4 -5 -5 -6 -7 -7 -7
-1 -1 1 -1 -2 -1 -2 -2 -2 -2 -3 -3 -3 -4 -4 -5 -5 -6 -6 -7 -7 -8
Height
1540 1540 1541 1542 1543 1544 1544 1544 1543 1544 1544 1543 1542 1541 1540 1537 1534 1532 1530 1528 1526 1525
1537 1538 1539 1540 1541 1541 1543 1541 1539 1538 1539 1539 1539 1537 1536 1533 1530 1529 1527 1524 1522 1520
1533 1535 1537 1538 1539 1541 1537 1542 1539 1537 1534 1534 1535 1534 1531 1530 1528 1526 1523 1521 1519 1517
1531 1533 1535 1537 1535 1536 1536 1537 1536 1535 1532 1531 1531 1529 1527 1526 1523 1521 1519 1517 1515 1513
1528 1531 1532 1533 1534 1532 1533 1532 1532 1532 1529 1528 1527 1524 1522 1520 1518 1517 1516 1514 1512 1512
1526 1528 1529 1530 1531 1532 1531 1530 1530 1529 1527 1525 1521 1518 1516 1513 1512 1511 1511 1510 1508 1505
1523 1525 1527 1529 1529 1531 1529 1527 1527 1526 1524 1522 1519 1516 1512 1508 1506 1505 1505 1505 1504 1502
1520 1521 1522 1525 1527 1526 1525 1523 1523 1521 1520 1518 1516 1513 1509 1505 1502 1502 1500 1499 1498 1496
1513 1516 1521 1522 1522 1522 1521 1520 1518 1516 1515 1513 1511 1511 1508 1504 1500 1498 1496 1494 1492 1491
1509 1512 1514 1516 1520 1518 1518 1516 1514 1511 1508 1505 1503 1502 1502 1499 1496 1494 1493 1489 1487 1483
1507 1509 1512 1513 1512 1513 1514 1511 1509 1506 1504 1500 1497 1496 1495 1493 1491 1488 1488 1485 1483 1480
1505 1506 1508 1509 1509 1507 1505 1504 1502 1499 1497 1495 1493 1491 1490 1488 1485 1483 1482 1481 1478 1474
1501 1505 1505 1504 1501 1499 1499 1496 1495 1493 1490 1487 1487 1485 1483 1481 1479 1478 1476 1474 1471 1470
1500 1500 1499 1496 1496 1495 1493 1491 1489 1487 1485 1482 1481 1479 1478 1475 1473 1472 1471 1468 1466 1465
Wind_Speed
23 22 22 21 20 19 19 21 18 24 24 24 22 22 22 22 21 20 20 19 21 25
28 26 23 20 18 17 17 18 19 19 18 20 21 20 18 16 16 18 20 22 25 25
25 22 19 17 13 15 12 16 18 19 17 18 19 17 17 19 20 22 23 24 18 12
23 20 17 13 11 10 12 19 19 19 18 19 16 15 20 23 28 22 17 16 15 16
21 15 14 9 9 11 16 20 21 19 20 19 16 17 22 25 24 19 19 17 16 14
19 15 10 16 14 12 18 18 19 21 23 18 18 20 23 22 19 18 14 11 11 13
14 12 15 9 10 18 16 17 22 25 24 18 20 22 23 24 19 18 16 16 16 19
15 14 13 18 14 15 26 22 23 24 20 20 23 25 26 22 17 18 19 20 20 19
16 13 6 9 14 16 16 22 22 23 23 25 24 25 26 23 20 20 21 20 20 17
8 11 14 14 13 15 19 22 23 25 25 23 24 25 27 24 22 20 20 19 19 17
7 4 4 7 10 17 19 22 24 22 24 28 26 24 25 24 22 21 21 20 20 19
7 3 6 14 14 22 24 22 26 27 27 27 24 22 23 23 24 20 20 21 18 18
3 7 9 15 19 17 23 26 27 29 25 23 25 25 25 28 24 23 21 21 21 19
9 7 13 16 19 20 24 28 27 21 22 25 27 27 26 25 24 23 22 20 17 18
Wind_Direction
207 200 199 202 209 220 231 246 274 259 269 280 290 295 295 298 299 297 294 292 285 295
221 220 220 222 228 232 270 267 258 266 280 286 291 299 306 305 299 293 288 288 291 295
223 222 223 223 253 273 261 268 271 274 283 292 298 300 296 296 295 297 296 299 304 285
221 224 233 252 253 245 280 268 285 285 293 296 298 288 290 294 304 308 303 296 290 295
227 233 232 268 243 283 273 271 281 284 294 295 284 285 290 295 305 308 298 294 302 303
225 232 240 218 273 250 265 270 271 284 294 289 280 284 291 308 296 298 290 290 297 297
225 212 222 250 226 270 261 271 280 292 298 293 284 285 287 301 287 284 279 279 279 288
203 221 217 245 268 271 282 287 290 295 297 290 291 289 293 301 286 275 281 287 289 286
212 252 219 242 307 281 278 291 294 293 292 292 290 292 293 297 287 287 287 295 299 284
213 201 250 283 278 284 300 300 292 291 285 283 287 290 287 291 288 283 282 295 295 283
220 284 216 248 299 315 300 287 292 287 285 292 289 288 287 285 282 282 280 292 293 285
120 220 284 286 302 282 287 291 286 289 288 289 283 281 285 282 280 274 283 296 290 285
241 300 311 295 293 299 282 284 289 289 286 286 286 288 287 295 290 281 289 295 295 287
315 301 296 288 276 282 286 290 293 287 284 286 289 292 291 291 290 287 287 295 305 288